Location: Emblem
(62.4273°N, 6.4710°E)
Time: 20:36:54
(UTC+02:00)

Vanguard 2 - Pass Details

Date: 11 February 2023
Orbit: 553 x 2927 km, 32.9° (Epoch: 27 March)

Event Time Altitude Azimuth Distance (km) Brightness Sun altitude
Rises 23:49:37 0° 240° (WSW) 5,484 11.8 -40.7°
Enters shadow 23:51:46 - 233° (SW) 5,210 11.6 -40.7°
Reaches altitude 10° 23:55:02 10° 222° (SW) 4,913 - -40.8°
Maximum altitude 00:02:30 16° 190° (S) 4,855 - -41.1°
Drops below altitude 10° 00:10:59 10° 160° (SSE) 5,677 - -41.3°
Sets 00:18:12 0° 143° (SE) 6,777 - -41.5°
